Back to catalog

STARLINK-32167

AliveCommunicationsVLEO
NORAD 60268·PAYLOAD·🇺🇸 United States

Launched Jul 27, 2024 from Cape Canaveral Space Force Station

Loading…

Next Passes (next 24 hours)

TLE

FreshSource: CelesTrak SupGP

Epoch: Sep 14, 2026, 15:16 UTC

1 60268C 24131P   26257.63659722 -.00034823  00000+0 -10290-2 0  2577
2 60268  53.1575 253.0763 0001363  73.3847 214.0850 15.34402249    16

Track STARLINK-32167 in real time with AllMySat

Download on the App Store